Погода в Чубарове

Россия / Калужская область     55°11′51″N   36°55′07″E
темп.,
°C
ветер,
м/с
пор.,
м/с
влажн.,
%
обл.,
%
осадки,
мм/ч
давл.,
гПа
погр.,
м
3 августа, вт
вт300:00+19ююз61394100 3.9 1005639
03:00+16юз3119822 4.0 1005522
06:00+15з39961 0.0 1007417
09:00+18з4675100 0.0 1008662
12:00+22зюз35555 0.0 10091270
15:00+23з5647100 0.0 10091955
18:00+21зюз36564 0.0 10101000
21:00+16з12662 0.0 101213
4 августа, ср
ср400:00+15зюз237398 0.0 101367
03:00+13зюз248525 0.0 101473
06:00+15зюз2478100 0.0 1014124
09:00+19з3462100 0.0 1015592
12:00+20зюз235573 0.0 1016784
15:00+23зюз344350 0.0 10152031
18:00+17сз118492 1.1 101643
21:00+14зюз119169 2.3 101711
5 августа, чт
чт500:00+13св119664 1.1 101810
03:00+12всв1195100 1.2 101810
06:00+13всв1193100 0.0 101833
09:00+18вюв227793 0.0 1018333
12:00+21ю2357100 0.6 1017880
15:00+17з2281100 1.5 101740
18:00+15вюв1195100 1.4 101739
21:00+14в3798100 3.7 1016229
6 августа, пт
пт600:00+14в3899100 3.9 1015343
03:00+14в61396100 8.4 1013441
06:00+14в2796100 0.1 1012259
09:00+14вюв2498100 4.2 1012158
12:00+17вюв3786100 2.1 1010282
15:00+18юв3795100 3.4 1010222
18:00+20вюв2489100 0.1 1010201
21:00+17св2598100 1.6 1009113
7 августа, сб
сб700:00+16св4997100 0.3 1010236
03:00+15всв3996100 0.3 1009275
06:00+15вюв259690 0.1 1009118
09:00+20юз1482100 0.2 1008209
12:00+25ююз245996 0.0 1009836
15:00+23ююз2373100 0.4 1009347
18:00+19ююв1298100 3.8 101057
21:00+18ююв2498100 4.4 1010111